EW2345 Weather Reports


Display with metric or nautical units.
time (UTC)temp
F
wind
direction
speed
MPH
gust
MPH
rain 1hr
in
rain 24hr
in
rain mn
in
humidity
%
barometer
mb
20260902155004 89 225 5.0 10.0 0.00 0.00 0.00 40 1019.6
20260902154502 89 223 7.0 12.0 0.00 0.00 0.00 41 1019.6
20260902154003 89 233 6.0 10.0 0.00 0.00 0.00 41 1019.7
20260902153503 89 244 6.0 10.0 0.00 0.00 0.00 41 1019.7
20260902153005 90 268 6.0 12.0 0.00 0.00 0.00 42 1019.7
20260902152004 89 226 6.0 10.0 0.00 0.00 0.00 41 1019.8
20260902151503 89 249 5.0 13.0 0.00 0.00 0.00 41 1019.8
20260902151003 90 241 7.0 12.0 0.00 0.00 0.00 41 1019.8
20260902150502 89 224 8.0 13.0 0.00 0.00 0.00 43 1019.9
20260902150004 89 235 7.0 13.0 0.00 0.00 0.00 41 1019.9
20260902145003 89 253 6.0 10.0 0.00 0.00 0.00 41 1019.9
20260902144503 89 225 8.0 12.0 0.00 0.00 0.00 41 1019.9
20260902144003 89 232 5.0 12.0 0.00 0.00 0.00 42 1019.9
20260902143502 89 249 6.0 10.0 0.00 0.00 0.00 41 1020.0
20260902143005 89 248 7.0 12.0 0.00 0.00 0.00 40 1020.1
20260902142504 89 232 8.0 14.0 0.00 0.00 0.00 40 1020.1
20260902142003 90 237 7.0 15.0 0.00 0.00 0.00 40 1020.2
20260902141503 90 229 7.0 13.0 0.00 0.00 0.00 39 1020.3
20260902141003 89 239 7.0 10.0 0.00 0.00 0.00 40 1020.4
20260902140504 89 238 8.0 12.0 0.00 0.00 0.00 41 1020.5
20260902140004 89 224 9.0 14.0 0.00 0.00 0.00 40 1020.6
20260902135503 89 248 5.0 12.0 0.00 0.00 0.00 42 1020.7
20260902135004 89 238 6.0 13.0 0.00 0.00 0.00 43 1020.7
20260902134503 89 250 6.0 12.0 0.00 0.00 0.00 41 1020.8
20260902134003 89 230 5.0 12.0 0.00 0.00 0.00 41 1020.8
20260902133503 88 240 6.0 9.0 0.00 0.00 0.00 42 1020.7
20260902132503 88 249 6.0 10.0 0.00 0.00 0.00 41 1020.7
20260902131503 88 240 2.0 9.0 0.00 0.00 0.00 39 1020.7
20260902131003 87 271 4.0 7.0 0.00 0.00 0.00 41 1020.6
20260902130503 87 338 1.0 6.0 0.00 0.00 0.00 39 1020.7
20260902130004 87 350 4.0 8.0 0.00 0.00 0.00 39 1020.7
20260902125503 87 322 3.0 7.0 0.00 0.00 0.00 40 1020.7
20260902125004 87 247 1.0 7.0 0.00 0.00 0.00 42 1020.7
20260902124003 87 330 3.0 6.0 0.00 0.00 0.00 40 1020.8
20260902123503 87 343 4.0 7.0 0.00 0.00 0.00 40 1020.9
20260902123004 87 260 3.0 7.0 0.00 0.00 0.00 38 1020.9
20260902122503 86 231 2.0 8.0 0.00 0.00 0.00 40 1021.0
20260902122004 86 242 2.0 7.0 0.00 0.00 0.00 41 1021.1
20260902121503 86 243 4.0 7.0 0.00 0.00 0.00 42 1021.1
20260902121003 86 294 4.0 7.0 0.00 0.00 0.00 41 1021.2
20260902115504 84 240 0.0 7.0 0.00 0.00 0.00 44 1021.2
20260902115004 85 238 1.0 7.0 0.00 0.00 0.00 46 1021.2
20260902114003 84 234 4.0 7.0 0.00 0.00 0.00 45 1021.3
20260902113503 84 136 2.0 6.0 0.00 0.00 0.00 47 1021.4
20260902113004 83 48 0.0 2.0 0.00 0.00 0.00 46 1021.4
20260902112503 83 43 0.0 3.0 0.00 0.00 0.00 50 1021.5
20260902111503 82 43 0.0 2.0 0.00 0.00 0.00 54 1021.5
20260902110505 81 43 0.0 3.0 0.00 0.00 0.00 58 1021.5
20260902110006 80 43 1.0 3.0 0.00 0.00 0.00 57 1021.5
20260902105504 80 43 0.0 2.0 0.00 0.00 0.00 56 1021.5
20260902105003 80 43 0.0 2.0 0.00 0.00 0.00 58 1021.5
20260902104003 80 43 0.0 0.0 0.00 0.00 0.00 61 1021.4
20260902103503 79 43 0.0 0.0 0.00 0.00 0.00 64 1021.5
20260902103005 78 43 0.0 0.0 0.00 0.00 0.00 63 1021.4
20260902102504 78 43 0.0 0.0 0.00 0.00 0.00 64 1021.4
20260902102004 78 43 0.0 0.0 0.00 0.00 0.00 65 1021.4
20260902101504 76 43 0.0 0.0 0.00 0.00 0.00 67 1021.4
20260902101004 76 43 0.0 3.0 0.00 0.00 0.00 67 1021.4
20260902100504 75 43 2.0 5.0 0.00 0.00 0.00 67 1021.6
20260902100005 75 43 0.0 3.0 0.00 0.00 0.00 69 1021.7
20260902095503 74 45 0.0 0.0 0.00 0.00 0.00 73 1021.7
20260902095004 73 45 0.0 0.0 0.00 0.00 0.00 73 1021.8
20260902094504 73 45 1.0 3.0 0.00 0.00 0.00 73 1021.8
20260902094004 73 44 0.0 0.0 0.00 0.00 0.00 75 1021.8
20260902093504 72 44 0.0 0.0 0.00 0.00 0.00 75 1021.8
20260902093004 71 44 0.0 1.0 0.00 0.00 0.00 75 1021.8
20260902092003 71 45 0.0 0.0 0.00 0.00 0.00 77 1021.9
20260902091503 69 45 0.0 0.0 0.00 0.00 0.00 77 1021.9
20260902091004 69 45 0.0 0.0 0.00 0.00 0.00 77 1021.9
20260902090005 68 45 0.0 0.0 0.00 0.00 0.00 79 1021.9
20260902085004 66 45 0.0 2.0 0.00 0.00 0.00 82 1022.0
20260902084503 66 45 0.0 2.0 0.00 0.00 0.00 83 1021.9
20260902084003 65 45 0.0 2.0 0.00 0.00 0.00 84 1021.8
20260902083503 65 45 0.0 1.0 0.00 0.00 0.00 84 1021.8
20260902083005 65 45 0.0 0.0 0.00 0.00 0.00 85 1021.8
20260902082503 64 45 0.0 1.0 0.00 0.00 0.00 86 1021.8
20260902082004 64 45 0.0 2.0 0.00 0.00 0.00 86 1021.8
20260902081503 64 43 0.0 2.0 0.00 0.00 0.00 87 1021.7
20260902081004 63 42 0.0 0.0 0.00 0.00 0.00 87 1021.8
20260902080503 63 42 0.0 0.0 0.00 0.00 0.00 87 1021.8
20260902080005 62 42 0.0 0.0 0.00 0.00 0.00 89 1021.8
20260902075503 62 42 0.0 0.0 0.00 0.00 0.00 91 1021.8
20260902075004 61 42 0.0 0.0 0.00 0.00 0.00 92 1021.8
20260902074503 61 42 0.0 2.0 0.00 0.00 0.00 94 1021.8
20260902074004 60 40 0.0 3.0 0.00 0.00 0.00 94 1021.8
20260902073503 60 40 1.0 6.0 0.00 0.00 0.00 95 1021.8
20260902073004 60 39 0.0 3.0 0.00 0.00 0.00 96 1021.8
20260902072503 59 38 0.0 3.0 0.00 0.00 0.00 97 1021.7
20260902072002 59 38 0.0 2.0 0.00 0.00 0.00 97 1021.6
20260902071504 59 37 1.0 5.0 0.00 0.00 0.00 97 1021.6
20260902071003 58 36 1.0 3.0 0.00 0.00 0.00 97 1021.6
20260902070007 58 28 0.0 2.0 0.00 0.00 0.00 97 1021.5
20260902065504 58 28 0.0 0.0 0.00 0.00 0.00 98 1021.5
20260902064004 57 28 0.0 0.0 0.00 0.00 0.00 97 1021.3
20260902063504 56 28 0.0 0.0 0.00 0.00 0.00 96 1021.3
20260902063004 56 28 0.0 0.0 0.00 0.00 0.00 96 1021.2
20260902062503 56 28 0.0 0.0 0.00 0.00 0.00 96 1021.1
20260902062003 56 28 0.0 0.0 0.00 0.00 0.00 96 1021.1
20260902061004 56 28 0.0 0.0 0.00 0.00 0.00 96 1021.0
20260902060504 56 28 0.0 0.0 0.00 0.00 0.00 96 1021.0
20260902060004 57 28 0.0 0.0 0.00 0.00 0.00 96 1021.0
20260902055503 57 28 0.0 0.0 0.00 0.00 0.00 96 1021.0
20260902055003 57 28 0.0 2.0 0.00 0.00 0.00 96 1021.0
20260902053503 57 28 0.0 0.0 0.00 0.00 0.00 95 1020.8
20260902053005 57 28 0.0 0.0 0.00 0.00 0.00 95 1020.8
20260902052504 57 28 0.0 0.0 0.00 0.00 0.00 95 1020.9
20260902052003 57 28 0.0 0.0 0.00 0.00 0.00 95 1020.9
20260902051504 57 28 0.0 0.0 0.00 0.00 0.00 95 1021.0
20260902051004 57 28 0.0 3.0 0.00 0.00 0.00 95 1021.0
20260902050007 57 26 0.0 0.0 0.00 0.00 0.00 95 1020.8
20260902044503 57 26 0.0 0.0 0.00 0.00 0.00 94 1020.7
20260902044004 57 26 0.0 0.0 0.00 0.00 0.00 94 1020.7
20260902043504 57 26 0.0 0.0 0.00 0.00 0.00 94 1020.7
20260902043005 58 26 0.0 0.0 0.00 0.00 0.00 94 1020.7
20260902042504 58 26 0.0 0.0 0.00 0.00 0.00 94 1020.6
20260902042004 58 26 0.0 0.0 0.00 0.00 0.00 94 1020.7
20260902041503 58 26 0.0 0.0 0.00 0.00 0.00 94 1020.6
20260902041004 58 26 0.0 0.0 0.00 0.00 0.00 94 1020.7
20260902040503 58 26 0.0 0.0 0.00 0.00 0.00 94 1020.7
20260902040005 58 26 0.0 0.0 0.00 0.00 0.00 94 1020.7
20260902035503 58 26 0.0 0.0 0.00 0.00 0.00 94 1020.7
20260902035003 58 26 0.0 0.0 0.00 0.00 0.00 94 1020.6
20260902034003 59 26 0.0 0.0 0.00 0.00 0.00 94 1020.6
20260902033504 59 26 0.0 0.0 0.00 0.00 0.00 93 1020.6
20260902032503 59 26 0.0 0.0 0.00 0.00 0.00 93 1020.6
20260902032004 59 26 0.0 0.0 0.00 0.00 0.00 93 1020.6
20260902031004 59 26 0.0 0.0 0.00 0.00 0.00 93 1020.6
20260902030504 59 26 0.0 0.0 0.00 0.00 0.00 93 1020.6
20260902030004 59 26 0.0 0.0 0.00 0.00 0.00 93 1020.7
20260902025504 59 26 0.0 0.0 0.00 0.00 0.00 93 1020.6
20260902024503 60 26 0.0 0.0 0.00 0.00 0.00 93 1020.6
20260902023503 60 26 1.0 5.0 0.00 0.00 0.00 92 1020.7
20260902023003 60 26 0.0 0.0 0.00 0.00 0.00 92 1020.6
20260902022503 60 26 0.0 0.0 0.00 0.00 0.00 92 1020.7
20260902022003 60 26 0.0 0.0 0.00 0.00 0.00 92 1020.7
20260902021003 60 26 0.0 0.0 0.00 0.00 0.00 92 1020.8
20260902020504 60 26 0.0 0.0 0.00 0.00 0.00 92 1020.8
20260902020005 60 26 0.0 0.0 0.00 0.00 0.00 92 1020.8
20260902015503 61 26 0.0 0.0 0.00 0.00 0.00 92 1020.8
20260902015003 61 26 2.0 3.0 0.00 0.00 0.00 92 1020.8
20260902014504 61 26 0.0 0.0 0.00 0.00 0.00 91 1020.8
20260902014003 61 26 0.0 0.0 0.00 0.00 0.00 91 1020.8
20260902013504 61 26 0.0 0.0 0.00 0.00 0.00 91 1020.8
20260902012504 61 25 0.0 3.0 0.00 0.00 0.00 91 1021.0
20260902011504 61 25 0.0 0.0 0.00 0.00 0.00 90 1021.0
20260902011004 61 25 0.0 0.0 0.00 0.00 0.00 90 1021.0
20260902010504 62 25 0.0 0.0 0.00 0.00 0.00 90 1021.1
20260902010004 62 25 0.0 0.0 0.00 0.00 0.00 89 1021.1
20260902005503 62 25 0.0 0.0 0.00 0.00 0.00 89 1021.1
20260902005003 62 25 0.0 0.0 0.00 0.00 0.00 90 1021.0
20260902004503 62 25 0.0 0.0 0.00 0.00 0.00 90 1021.0
20260902004003 62 25 0.0 0.0 0.00 0.00 0.00 90 1021.1
20260902003504 62 25 0.0 2.0 0.00 0.00 0.00 90 1021.1
20260902003004 63 25 0.0 0.0 0.00 0.00 0.00 90 1021.0
20260902002504 63 25 0.0 0.0 0.00 0.00 0.00 89 1021.0
20260902002003 63 25 0.0 0.0 0.00 0.00 0.00 89 1021.0
20260902001504 63 25 0.0 0.0 0.00 0.00 0.00 89 1021.0
20260902001003 63 25 0.0 3.0 0.00 0.00 0.00 89 1021.0
20260901235503 63 24 0.0 0.0 0.00 0.00 0.00 88 1020.9
20260901235003 63 24 0.0 0.0 0.00 0.00 0.00 88 1020.9
20260901234504 63 24 0.0 0.0 0.00 0.00 0.00 88 1020.9
20260901234004 64 24 0.0 0.0 0.00 0.00 0.00 88 1020.9
20260901233503 64 24 0.0 0.0 0.00 0.00 0.00 88 1020.9
20260901233005 64 24 0.0 0.0 0.00 0.00 0.00 88 1020.9
20260901232004 64 24 0.0 0.0 0.00 0.00 0.00 87 1021.1
20260901231503 64 24 0.0 0.0 0.00 0.00 0.00 87 1021.1
20260901231003 64 24 0.0 0.0 0.00 0.00 0.00 86 1021.0
20260901230503 64 24 0.0 0.0 0.00 0.00 0.00 86 1020.9
20260901230004 65 24 0.0 0.0 0.00 0.00 0.00 86 1020.8
20260901225503 65 24 0.0 0.0 0.00 0.00 0.00 85 1020.8
20260901225004 65 24 0.0 0.0 0.00 0.00 0.00 85 1020.7
20260901224503 65 24 0.0 0.0 0.00 0.00 0.00 85 1020.7
20260901223503 65 24 0.0 2.0 0.00 0.00 0.00 85 1020.7
20260901223005 66 24 0.0 2.0 0.00 0.00 0.00 85 1020.6
20260901222004 66 24 0.0 6.0 0.00 0.00 0.00 85 1020.7
20260901221503 66 22 3.0 6.0 0.00 0.00 0.00 85 1020.8
20260901221004 66 22 3.0 6.0 0.00 0.00 0.00 84 1020.8
20260901220503 66 358 3.0 6.0 0.00 0.00 0.00 84 1020.8
20260901215503 66 355 0.0 3.0 0.00 0.00 0.00 84 1020.8
20260901215004 67 355 0.0 0.0 0.00 0.00 0.00 83 1020.8
20260901214504 67 355 1.0 5.0 0.00 0.00 0.00 81 1020.8
20260901214004 67 355 1.0 3.0 0.00 0.00 0.00 80 1020.8
20260901213503 67 350 0.0 0.0 0.00 0.00 0.00 79 1020.8
20260901213005 68 350 0.0 0.0 0.00 0.00 0.00 79 1020.8
20260901212504 68 350 0.0 0.0 0.00 0.00 0.00 79 1020.7
20260901211004 68 350 0.0 0.0 0.00 0.00 0.00 78 1020.5
20260901210504 69 350 0.0 0.0 0.00 0.00 0.00 77 1020.5
20260901210004 69 350 0.0 0.0 0.00 0.00 0.00 77 1020.5
20260901205503 69 350 0.0 0.0 0.00 0.00 0.00 76 1020.5
20260901205003 69 350 0.0 0.0 0.00 0.00 0.00 76 1020.4
20260901204504 70 350 0.0 0.0 0.00 0.00 0.00 76 1020.4
20260901204003 70 350 0.0 0.0 0.00 0.00 0.00 76 1020.4
20260901203504 70 350 0.0 0.0 0.00 0.00 0.00 76 1020.3
20260901203004 70 350 1.0 3.0 0.00 0.00 0.00 75 1020.3
20260901202503 71 236 1.0 3.0 0.00 0.00 0.00 75 1020.2
20260901202004 71 235 0.0 0.0 0.00 0.00 0.00 75 1020.1
20260901201004 71 235 1.0 3.0 0.00 0.00 0.00 75 1020.0
20260901200504 71 235 2.0 3.0 0.00 0.00 0.00 75 1019.9
20260901200004 72 235 2.0 5.0 0.00 0.00 0.00 74 1019.8
20260901195504 72 235 0.0 0.0 0.00 0.00 0.00 73 1019.7
20260901195003 72 235 0.0 0.0 0.00 0.00 0.00 73 1019.6
20260901194503 72 235 0.0 0.0 0.00 0.00 0.00 72 1019.5
20260901193504 73 235 0.0 0.0 0.00 0.00 0.00 71 1019.4
20260901193004 73 235 0.0 0.0 0.00 0.00 0.00 70 1019.2
20260901192503 74 235 0.0 0.0 0.00 0.00 0.00 70 1019.1
20260901191504 74 235 1.0 6.0 0.00 0.00 0.00 68 1018.9
20260901191004 75 235 2.0 3.0 0.00 0.00 0.00 68 1018.9
20260901190503 75 235 0.0 3.0 0.00 0.00 0.00 67 1018.9
20260901184503 76 232 5.0 7.0 0.00 0.00 0.00 65 1019.0
20260901184004 76 246 2.0 6.0 0.00 0.00 0.00 65 1019.1
20260901183504 76 246 2.0 6.0 0.00 0.00 0.00 65 1019.1
20260901183005 77 246 6.0 10.0 0.00 0.00 0.00 64 1019.1
20260901182003 77 244 5.0 9.0 0.00 0.00 0.00 64 1019.2
20260901181504 77 233 5.0 9.0 0.00 0.00 0.00 63 1019.2
20260901181004 78 227 7.0 10.0 0.00 0.00 0.00 63 1019.1
20260901180504 78 241 5.0 12.0 0.00 0.00 0.00 62 1019.1
20260901175504 78 242 6.0 10.0 0.00 0.00 0.00 61 1019.1
20260901175004 78 235 2.0 8.0 0.00 0.00 0.00 60 1019.0
20260901174504 79 239 7.0 12.0 0.00 0.00 0.00 60 1018.9
20260901174003 79 227 5.0 10.0 0.00 0.00 0.00 59 1018.9
20260901173504 79 247 6.0 12.0 0.00 0.00 0.00 58 1018.8
20260901173005 79 231 7.0 12.0 0.00 0.00 0.00 58 1018.6
20260901172504 80 235 6.0 10.0 0.00 0.00 0.00 59 1018.6
20260901171503 80 235 7.0 10.0 0.00 0.00 0.00 58 1018.4
20260901171003 80 243 6.0 13.0 0.00 0.00 0.00 59 1018.4
20260901165504 80 252 9.0 14.0 0.00 0.00 0.00 58 1018.3
20260901165004 80 244 7.0 15.0 0.00 0.00 0.00 57 1018.3
20260901164504 81 241 7.0 13.0 0.00 0.00 0.00 55 1018.3
20260901163004 82 228 6.0 9.0 0.00 0.00 0.00 55 1018.2
20260901162504 81 242 6.0 12.0 0.00 0.00 0.00 56 1018.1
20260901162004 82 236 7.0 15.0 0.00 0.00 0.00 55 1018.1
20260901161503 82 258 6.0 12.0 0.00 0.00 0.00 54 1018.1
20260901161003 82 236 9.0 14.0 0.00 0.00 0.00 52 1018.1
20260901160504 82 254 6.0 13.0 0.00 0.00 0.00 52 1018.1
20260901160004 82 231 7.0 13.0 0.00 0.00 0.00 54 1018.1
20260901155504 83 221 8.0 14.0 0.00 0.00 0.00 52 1018.1